Flyingdolphin Xviii — SV9700 — position and weather

sailwx.info

Track history (hours):
 
Tides and Currents Weather Stations Pressure Air Temp Water Temp Dewpoint Dewpoint Depression Visibility Wind Speed Wind Dir Waves Ship Positions

Flyingdolphin Xviii

Last reported at 2017-Nov-27 12:20 UTC. Time now 2018-Jan-20 09:32 UTC.
Position N 37°58' E 023°34'.
Warning: this ship's position is 53 days out of date.

Length 36 m; draft 4 m.

Type: Ship. MMSI: 237023700.

Date/timePositionNaut miles runAvg speedWind from/ knotsBaromVisibWave heightAir tempDewpointWater temp
2017-Nov-27 12:20N 37°58' E 023°34'0 0.0
2017-Nov-27 12:00N 37°58' E 023°34'3 5.8
2017-Nov-27 11:30N 37°56' E 023°37'  
2017-Nov-24 14:46N 37°57' E 023°39'2 8.7
2017-Nov-24 14:31N 37°56' E 023°36'1418.9
2017-Nov-24 13:47N 37°45' E 023°26'726.0
2017-Nov-24 13:31N 37°50' E 023°31'917.3
2017-Nov-24 13:00N 37°57' E 023°39'1121.2
2017-Nov-24 12:31N 37°49' E 023°29'917.7
2017-Nov-24 12:00N 37°43' E 023°21'4 7.4
2017-Nov-24 11:30N 37°45' E 023°25'1529.9
2017-Nov-24 11:00N 37°56' E 023°37'3 5.0
2017-Nov-24 10:31N 37°55' E 023°35'1220.9
2017-Nov-24 09:55N 37°45' E 023°26'717.9
2017-Nov-24 09:30N 37°50' E 023°32'816.9
2017-Nov-24 09:00N 37°57' E 023°39'1223.7
2017-Nov-24 08:31N 37°48' E 023°28'815.7
2017-Nov-24 08:00N 37°43' E 023°21'713.3
2017-Nov-24 07:30N 37°47' E 023°27'1325.8
2017-Nov-24 07:00N 37°57' E 023°38'3 6.4
2017-Nov-24 06:31N 37°54' E 023°35'1214.8
2017-Nov-24 05:40N 37°45' E 023°26'321.6
2017-Nov-24 05:31N 37°48' E 023°27'1224.8
2017-Nov-24 05:00N 37°57' E 023°39'0 0.0
2017-Nov-23 15:21N 37°57' E 023°39'0 0.0
2017-Nov-23 15:00N 37°57' E 023°39'2 4.8
2017-Nov-23 14:31N 37°55' E 023°36'1326.9
2017-Nov-23 14:00N 37°45' E 023°26'612.6
2017-Nov-23 13:31N 37°50' E 023°31'918.8
2017-Nov-23 13:00N 37°57' E 023°39'816.5
2017-Nov-23 12:31N 37°51' E 023°32'918.9
2017-Nov-23 12:00N 37°44' E 023°23'2 3.8
2017-Nov-23 11:30N 37°44' E 023°25'1530.5
2017-Nov-23 11:00N 37°56' E 023°37'2 3.8
2017-Nov-23 10:31N 37°55' E 023°35'1325.7
2017-Nov-23 10:00N 37°45' E 023°26'714.1
2017-Nov-23 09:30N 37°50' E 023°31'917.5
2017-Nov-23 09:00N 37°57' E 023°39'1020.2
2017-Nov-23 08:31N 37°49' E 023°30'714.7
2017-Nov-23 08:00N 37°44' E 023°23'2 3.8
2017-Nov-23 07:30N 37°44' E 023°25'1428.9
2017-Nov-23 07:01N 37°56' E 023°36'2 3.7
2017-Nov-23 06:31N 37°54' E 023°35'1215.0
2017-Nov-23 05:41N 37°45' E 023°26'422.7
2017-Nov-23 05:31N 37°48' E 023°28'1223.6
2017-Nov-23 05:00N 37°57' E 023°39'  
2017-Nov-19 14:44N 37°57' E 023°39'315.5
2017-Nov-19 14:31N 37°55' E 023°35'1317.8
2017-Nov-19 13:47N 37°45' E 023°26'828.2
2017-Nov-19 13:30N 37°52' E 023°30'812.8
2017-Nov-19 12:52N 37°57' E 023°38'1026.9
2017-Nov-19 12:30N 37°51' E 023°28'916.9
2017-Nov-19 12:00N 37°44' E 023°22'3 5.0
2017-Nov-19 11:29N 37°45' E 023°25'1430.4
2017-Nov-19 11:01N 37°56' E 023°36'3 6.5
2017-Nov-19 10:30N 37°54' E 023°33'1113.5
2017-Nov-19 09:40N 37°45' E 023°26'320.9
2017-Nov-19 09:30N 37°48' E 023°27'1217.4
2017-Nov-19 08:48N 37°57' E 023°38'825.7
2017-Nov-19 08:30N 37°51' E 023°32'1119.7
2017-Nov-19 07:56N 37°43' E 023°21'4 8.4
2017-Nov-19 07:30N 37°45' E 023°26'1428.0
2017-Nov-19 07:01N 37°55' E 023°36'2 0.1
2017-Nov-18 14:39N 37°57' E 023°38'319.3
2017-Nov-18 14:31N 37°55' E 023°35'1317.1
2017-Nov-18 13:45N 37°45' E 023°26'522.3
2017-Nov-18 13:30N 37°50' E 023°28'1115.2
2017-Nov-18 12:49N 37°57' E 023°38'825.0
2017-Nov-18 12:30N 37°52' E 023°30'1019.9
2017-Nov-18 12:00N 37°44' E 023°23'2 3.3
2017-Nov-18 11:30N 37°45' E 023°25'1530.2
2017-Nov-18 11:00N 37°56' E 023°37'2 3.2
2017-Nov-18 10:31N 37°56' E 023°35'1415.7
2017-Nov-18 09:38N 37°45' E 023°25'429.0
2017-Nov-18 09:30N 37°48' E 023°27'1318.6
2017-Nov-18 08:50N 37°57' E 023°38'926.6
2017-Nov-18 08:30N 37°50' E 023°31'917.3
2017-Nov-18 08:00N 37°44' E 023°23'2 3.8
2017-Nov-18 07:30N 37°45' E 023°25'1531.2
2017-Nov-18 07:00N 37°56' E 023°37'1 0.0
2017-Nov-17 14:40N 37°57' E 023°38'319.8
2017-Nov-17 14:31N 37°55' E 023°35'1315.2
2017-Nov-17 13:39N 37°45' E 023°25'531.1
2017-Nov-17 13:30N 37°49' E 023°28'1115.9
2017-Nov-17 12:48N 37°56' E 023°38'826.6
2017-Nov-17 12:31N 37°52' E 023°30'  
Track history (hours):
 
Tides and Currents Weather Stations Pressure Air Temp Water Temp Dewpoint Dewpoint Depression Visibility Wind Speed Wind Dir Waves Ship Positions

Flyingdolphin Xviii

Last reported at 2017-Nov-27 12:20 UTC. Time now 2018-Jan-20 09:32 UTC.
Position N 37°58' E 023°34'.
Warning: this ship's position is 53 days out of date.

Length 36 m; draft 4 m.

Type: Ship. MMSI: 237023700.

Date/timePositionNaut miles runAvg speedWind from/ knotsBaromVisibWave heightAir tempDewpointWater temp
2017-Nov-27 12:20N 37°58' E 023°34'0 0.0
2017-Nov-27 12:00N 37°58' E 023°34'3 5.8
2017-Nov-27 11:30N 37°56' E 023°37'  
2017-Nov-24 14:46N 37°57' E 023°39'2 8.7
2017-Nov-24 14:31N 37°56' E 023°36'1418.9
2017-Nov-24 13:47N 37°45' E 023°26'726.0
2017-Nov-24 13:31N 37°50' E 023°31'917.3
2017-Nov-24 13:00N 37°57' E 023°39'1121.2
2017-Nov-24 12:31N 37°49' E 023°29'917.7
2017-Nov-24 12:00N 37°43' E 023°21'4 7.4
2017-Nov-24 11:30N 37°45' E 023°25'1529.9
2017-Nov-24 11:00N 37°56' E 023°37'3 5.0
2017-Nov-24 10:31N 37°55' E 023°35'1220.9
2017-Nov-24 09:55N 37°45' E 023°26'717.9
2017-Nov-24 09:30N 37°50' E 023°32'816.9
2017-Nov-24 09:00N 37°57' E 023°39'1223.7
2017-Nov-24 08:31N 37°48' E 023°28'815.7
2017-Nov-24 08:00N 37°43' E 023°21'713.3
2017-Nov-24 07:30N 37°47' E 023°27'1325.8
2017-Nov-24 07:00N 37°57' E 023°38'3 6.4
2017-Nov-24 06:31N 37°54' E 023°35'1214.8
2017-Nov-24 05:40N 37°45' E 023°26'321.6
2017-Nov-24 05:31N 37°48' E 023°27'1224.8
2017-Nov-24 05:00N 37°57' E 023°39'0 0.0
2017-Nov-23 15:21N 37°57' E 023°39'0 0.0
2017-Nov-23 15:00N 37°57' E 023°39'2 4.8
2017-Nov-23 14:31N 37°55' E 023°36'1326.9
2017-Nov-23 14:00N 37°45' E 023°26'612.6
2017-Nov-23 13:31N 37°50' E 023°31'918.8
2017-Nov-23 13:00N 37°57' E 023°39'816.5
2017-Nov-23 12:31N 37°51' E 023°32'918.9
2017-Nov-23 12:00N 37°44' E 023°23'2 3.8
2017-Nov-23 11:30N 37°44' E 023°25'1530.5
2017-Nov-23 11:00N 37°56' E 023°37'2 3.8
2017-Nov-23 10:31N 37°55' E 023°35'1325.7
2017-Nov-23 10:00N 37°45' E 023°26'714.1
2017-Nov-23 09:30N 37°50' E 023°31'917.5
2017-Nov-23 09:00N 37°57' E 023°39'1020.2
2017-Nov-23 08:31N 37°49' E 023°30'714.7
2017-Nov-23 08:00N 37°44' E 023°23'2 3.8
2017-Nov-23 07:30N 37°44' E 023°25'1428.9
2017-Nov-23 07:01N 37°56' E 023°36'2 3.7
2017-Nov-23 06:31N 37°54' E 023°35'1215.0
2017-Nov-23 05:41N 37°45' E 023°26'422.7
2017-Nov-23 05:31N 37°48' E 023°28'1223.6
2017-Nov-23 05:00N 37°57' E 023°39'  
2017-Nov-19 14:44N 37°57' E 023°39'315.5
2017-Nov-19 14:31N 37°55' E 023°35'1317.8
2017-Nov-19 13:47N 37°45' E 023°26'828.2
2017-Nov-19 13:30N 37°52' E 023°30'812.8
2017-Nov-19 12:52N 37°57' E 023°38'1026.9
2017-Nov-19 12:30N 37°51' E 023°28'916.9
2017-Nov-19 12:00N 37°44' E 023°22'3 5.0
2017-Nov-19 11:29N 37°45' E 023°25'1430.4
2017-Nov-19 11:01N 37°56' E 023°36'3 6.5
2017-Nov-19 10:30N 37°54' E 023°33'1113.5
2017-Nov-19 09:40N 37°45' E 023°26'320.9
2017-Nov-19 09:30N 37°48' E 023°27'1217.4
2017-Nov-19 08:48N 37°57' E 023°38'825.7
2017-Nov-19 08:30N 37°51' E 023°32'1119.7
2017-Nov-19 07:56N 37°43' E 023°21'4 8.4
2017-Nov-19 07:30N 37°45' E 023°26'1428.0
2017-Nov-19 07:01N 37°55' E 023°36'2 0.1
2017-Nov-18 14:39N 37°57' E 023°38'319.3
2017-Nov-18 14:31N 37°55' E 023°35'1317.1
2017-Nov-18 13:45N 37°45' E 023°26'522.3
2017-Nov-18 13:30N 37°50' E 023°28'1115.2
2017-Nov-18 12:49N 37°57' E 023°38'825.0
2017-Nov-18 12:30N 37°52' E 023°30'1019.9
2017-Nov-18 12:00N 37°44' E 023°23'2 3.3
2017-Nov-18 11:30N 37°45' E 023°25'1530.2
2017-Nov-18 11:00N 37°56' E 023°37'2 3.2
2017-Nov-18 10:31N 37°56' E 023°35'1415.7
2017-Nov-18 09:38N 37°45' E 023°25'429.0
2017-Nov-18 09:30N 37°48' E 023°27'1318.6
2017-Nov-18 08:50N 37°57' E 023°38'926.6
2017-Nov-18 08:30N 37°50' E 023°31'917.3
2017-Nov-18 08:00N 37°44' E 023°23'2 3.8
2017-Nov-18 07:30N 37°45' E 023°25'1531.2
2017-Nov-18 07:00N 37°56' E 023°37'1 0.0
2017-Nov-17 14:40N 37°57' E 023°38'319.8
2017-Nov-17 14:31N 37°55' E 023°35'1315.2
2017-Nov-17 13:39N 37°45' E 023°25'531.1
2017-Nov-17 13:30N 37°49' E 023°28'1115.9
2017-Nov-17 12:48N 37°56' E 023°38'826.6
2017-Nov-17 12:31N 37°52' E 023°30'  

Dump ship's entire track history